FW4346 Weather Reports


time (UTC)temp
F
wind
direction
speed
knots
gust
knots
rain 1hr
in
rain 24hr
in
rain mn
in
humidity
%
barometer
mb
20200531074527 55 267 13.9 26.9 0.00 0.02 0.00 59 1008.8
20200531073030 55 263 16.5 27.8 0.00 0.02 0.00 59 1008.5
20200531071514 55 265 18.2 32.2 0.00 0.02 0.00 57 1008.7
20200531070009 55 279 13.0 27.8 0.00 0.02 0.00 58 1009.2
20200531064510 55 249 15.6 26.9 0.00 0.02 0.02 58 1009.1
20200531063002 55 233 13.0 27.8 0.00 0.02 0.02 58 1008.7
20200531061626 55 241 20.0 31.3 0.00 0.02 0.02 58 1008.3
20200531060134 55 272 13.9 28.7 0.00 0.02 0.02 57 1008.2
20200531054908 55 259 17.4 27.8 0.00 0.02 0.02 57 1008.5
20200531053129 56 260 10.4 26.9 0.00 0.02 0.02 57 1008.3
20200531051616 56 288 14.8 25.2 0.00 0.02 0.02 57 1008.1
20200531050122 56 289 19.1 30.4 0.00 0.02 0.02 57 1007.5
20200531044624 55 267 11.3 20.9 0.00 0.02 0.02 57 1007.4
20200531043343 56 245 13.9 26.1 0.00 0.02 0.02 55 1007.6
20200531043035 56 263 16.5 26.1 0.00 0.02 0.02 55 1007.6
20200531041610 56 247 10.4 24.3 0.00 0.02 0.02 55 1007.3
20200531040116 56 277 13.0 30.4 0.00 0.02 0.02 54 1007.2
20200531034802 57 244 13.9 30.4 0.00 0.02 0.02 54 1007.1
20200531033043 57 277 12.2 28.7 0.00 0.02 0.02 53 1006.3
20200531031600 58 270 20.9 32.2 0.00 0.02 0.02 53 1006.0
20200531030027 58 263 20.0 33.0 0.00 0.02 0.02 53 1004.3
20200531023036 58 284 19.1 32.2 0.00 0.02 0.02 56 1006.3
20200531021526 59 292 24.3 37.4 0.00 0.02 0.02 53 1006.3
20200531020035 60 303 24.3 34.8 0.00 0.02 0.02 56 1004.7
20200531014535 61 284 19.1 36.5 0.00 0.02 0.02 56 1004.3
20200531013020 61 281 23.5 35.6 0.00 0.02 0.02 55 1004.3
20200531011541 61 245 20.0 29.5 0.00 0.02 0.02 56 1004.3
20200531010113 62 279 20.9 35.6 0.00 0.02 0.02 60 1004.2
20200530224505 70 279 9.6 20.0 0.00 0.00 0.00 50 996.8
20200530223018 73 279 14.8 25.2 0.00 0.00 0.00 44 997.6
20200530221752 75 271 15.6 24.3 0.00 0.00 0.00 41 998.1
20200530220239 78 270 11.3 25.2 0.00 0.00 0.00 39 997.7
20200530214809 82 276 12.2 20.0 0.00 0.00 0.00 36 997.2
20200530213201 87 279 9.6 16.5 0.00 0.00 0.00 32 996.3
20200530211656 87 319 0.9 7.8 0.00 0.00 0.00 32 996.6
20200530210332 88 290 3.5 8.7 0.00 0.00 0.00 31 996.9
20200530204709 86 304 5.2 7.8 0.00 0.00 0.00 33 997.1
20200530203155 86 312 7.0 9.6 0.00 0.00 0.00 33 997.3
20200530201618 85 19 5.2 8.7 0.00 0.00 0.00 34 997.9
20200530200100 86 22 4.3 8.7 0.00 0.00 0.00 34 998.1
20200530194556 85 22 4.3 7.8 0.00 0.00 0.00 34 998.1
20200530193124 85 326 4.3 9.6 0.00 0.00 0.00 35 998.4
20200530191607 84 327 5.2 11.3 0.00 0.00 0.00 36 998.6
20200530190055 83 232 5.2 11.3 0.00 0.00 0.00 36 999.2
20200530184522 81 295 8.7 13.0 0.00 0.00 0.00 37 999.4
20200530183026 80 281 8.7 14.8 0.00 0.00 0.00 38 999.5
20200530181517 80 258 8.7 14.8 0.00 0.00 0.00 38 999.5
20200530180036 79 281 8.7 15.6 0.00 0.00 0.00 39 999.5
20200530174510 78 259 8.7 14.8 0.00 0.00 0.00 41 999.5
20200530173008 77 261 9.6 16.5 0.00 0.00 0.00 42 999.8
20200530171531 77 300 10.4 16.5 0.00 0.00 0.00 42 999.4
20200530164740 77 286 10.4 14.8 0.00 0.00 0.00 42 1000.7
20200530163215 77 269 5.2 13.0 0.00 0.00 0.00 43 1000.8
20200530161639 75 248 8.7 18.2 0.00 0.00 0.00 45 1000.7
20200530160104 72 279 8.7 16.5 0.00 0.00 0.00 49 1000.7
20200530154701 72 306 9.6 16.5 0.00 0.00 0.00 49 1000.9
20200530153151 72 290 9.6 15.6 0.00 0.00 0.00 49 1002.0
20200530151620 73 281 5.2 10.4 0.00 0.00 0.00 50 1002.2
20200530150108 71 305 3.5 12.2 0.00 0.00 0.00 51 1001.8
20200530144615 71 355 3.5 7.0 0.00 0.00 0.00 52 1001.5
20200530143117 71 206 7.0 13.9 0.00 0.00 0.00 50 1001.5
20200530141550 72 221 2.6 7.0 0.00 0.00 0.00 50 1001.3
20200530140131 71 76 0.0 3.5 0.00 0.00 0.00 51 1001.9
20200530134549 72 109 2.6 7.8 0.00 0.00 0.00 48 1003.0
20200530133103 71 204 4.3 6.1 0.00 0.00 0.00 50 1003.0
20200530131559 72 276 6.1 10.4 0.00 0.00 0.00 49 1002.3
20200530130052 71 288 7.0 13.0 0.00 0.00 0.00 50 1002.3
20200530124532 68 36 0.9 3.5 0.00 0.00 0.00 56 1002.5
20200530123042 68 135 0.9 4.3 0.00 0.00 0.00 55 1002.8
20200530121606 69 140 0.9 2.6 0.00 0.00 0.00 54 1003.3
20200530120056 70 142 0.0 1.7 0.00 0.00 0.00 52 1003.4
20200530114626 69 142 1.7 4.3 0.00 0.00 0.00 53 1004.0
20200530113028 70 142 3.5 6.1 0.00 0.00 0.00 52 1003.3
20200530111545 70 142 1.7 3.5 0.00 0.00 0.00 51 1003.3
20200530110038 70 138 1.7 3.5 0.00 0.00 0.00 51 1003.2
20200530104542 69 139 0.0 7.0 0.00 0.00 0.00 53 1003.2
20200530103017 69 132 4.3 7.8 0.00 0.00 0.00 51 1002.9
20200530101525 69 159 3.5 7.0 0.00 0.00 0.00 52 1003.2
20200530100017 70 142 3.5 6.1 0.00 0.00 0.00 51 1003.5
20200530094518 70 152 0.9 4.3 0.00 0.00 0.00 50 1003.4
20200530093011 70 152 2.6 6.1 0.00 0.00 0.00 51 1003.7
20200530090012 70 152 0.9 4.3 0.00 0.00 0.00 51 1003.9
20200530084617 72 152 0.0 0.0 0.00 0.00 0.00 48 1004.1
20200530083157 72 152 0.0 0.0 0.00 0.00 0.00 48 1004.0
20200530081648 72 152 0.0 0.0 0.00 0.00 0.00 47 1004.7
20200530080110 72 152 0.0 0.0 0.00 0.00 0.00 47 1004.8